This is the latest recevied weather packets stored in our database for station/object KI5RAB. If no packets are shown the sender has not sent any weather packets the latest 10 day(s).
| Time | Temp. | Humidity | Pressure | Rain* | Wind** | Luminosity | Snow |
|---|---|---|---|---|---|---|---|
| 1777675509 | 16.67° C | 85% | 1015.4 hPa | 0 mm | - | 124 W/m² | - |
| 1777675206 | 16.67° C | 85% | 1015.5 hPa | 0 mm | - | 149 W/m² | - |
| 1777674902 | 16.67° C | 84% | 1015.4 hPa | 0 mm | - | 166 W/m² | - |
| 1777674598 | 16.67° C | 85% | 1015.2 hPa | 0 mm | - | 290 W/m² | - |
| 1777674296 | 16.67° C | 86% | 1015.5 hPa | 0 mm | - | 167 W/m² | - |
| 1777673992 | 16.67° C | 86% | 1015.4 hPa | 0 mm | - | 157 W/m² | - |
| 1777673688 | 16.11° C | 87% | 1015.6 hPa | 0 mm | - | 174 W/m² | - |
| 1777673386 | 16.11° C | 88% | 1015.6 hPa | 0 mm | - | 127 W/m² | - |
| 1777673084 | 16.11° C | 88% | 1015.5 hPa | 0 mm | - | 91 W/m² | - |
| 1777672779 | 16.11° C | 88% | 1015.2 hPa | 0 mm | - | 102 W/m² | - |
| 1777672477 | 16.11° C | 88% | 1015.2 hPa | 0 mm | - | 156 W/m² | - |
| 1777672171 | 16.11° C | 88% | 1014.9 hPa | 0 mm | - | 132 W/m² | - |
| 1777671867 | 16.11° C | 88% | 1014.9 hPa | 0 mm | - | 123 W/m² | - |
| 1777671557 | 16.11° C | 89% | 1014.9 hPa | 0 mm | - | 169 W/m² | - |
| 1777671255 | 16.11° C | 88% | 1014.8 hPa | 0 mm | - | 58 W/m² | - |
| 1777670950 | 16.11° C | 89% | 1014.7 hPa | 0 mm | - | 104 W/m² | - |
| 1777670647 | 16.67° C | 89% | 1014.7 hPa | 0 mm | - | 112 W/m² | - |
| 1777670343 | 16.67° C | 89% | 1014.9 hPa | 0 mm | - | 102 W/m² | - |
| 1777670041 | 16.67° C | 89% | 1015 hPa | 0 mm | - | 108 W/m² | - |
| 1777669739 | 16.67° C | 89% | 1014.9 hPa | 0 mm | - | 94 W/m² | - |
| 1777669435 | 16.67° C | 89% | 1014.8 hPa | 0 mm | - | 142 W/m² | - |
| 1777669132 | 16.67° C | 89% | 1014.7 hPa | 0 mm | - | 136 W/m² | - |
| 1777668828 | 17.22° C | 89% | 1014.8 hPa | 0 mm | - | 84 W/m² | - |
| 1777668525 | 17.22° C | 90% | 1014.8 hPa | 0 mm | - | 89 W/m² | - |
| 1777668221 | 17.78° C | 90% | 1014.7 hPa | 0 mm | - | 119 W/m² | - |
* Rain latest hour (hover to see other rain measurements)
** Current wind speed in m/s (hover to see current wind gust speed)